Regional Weather Roundup
Issued by NWS

Home | Current Version | Previous Version | Text Only | Print | Product List | Glossary On
Versions: 1 2 3 4 5 6 7 8 9 10 11 12 13 14 15 16 17 18 19 20 21 22 23 24 25 26 27 28 29 30 31 32 33 34 35 36 37 38 39 40 41 42 43 44 45 46 47 48 49 50
000
ASUS44 KMEG 222010
RWRTN
TENNESSEE HOURLY STATE WEATHER ROUNDUP
NATIONAL WEATHER SERVICE MEMPHIS TN
200 PM CST WED FEB 22 2017

TNZ002-004-019-021-049-052-054-088>092-222100-
WEST TENNESSEE

CITY           SKY/WX    TMP DP  RH WIND       PRES   REMARKS
MEMPHIS INTL   MOSUNNY   74  57  55 SE6       29.81F
NWS MEMPHIS      N/A     74 N/A N/A MISG        N/A
JACKSON        PTSUNNY   70  59  68 E7        29.82F
UNION CITY     MOSUNNY   73  55  53 CALM      29.81F
PARIS          PTSUNNY   72  55  56 VRB7      29.82F
HUNTINGDON     PTSUNNY   72  57  60 VRB3G12   29.81F
$$

TNZ008-025-027-028-033-062-065-066-222100-
NORTH MIDDLE TENNESSEE

CITY           SKY/WX    TMP DP  RH WIND       PRES   REMARKS
NASHVILLE      CLOUDY    68  56  65 S5        29.85F
PORTLAND       CLOUDY    70  57  64 S10       29.84F
CLARKSVILLE    MOSUNNY   73  56  54 S9        29.81F
SMYRNA         CLOUDY    68  58  70 S6        29.85F
COOKEVILLE     CLOUDY    66  57  72 SE9       29.85F
GALLATIN       CLOUDY    68  57  68 SE7       29.87F
CROSSVILLE     CLOUDY    60  54  80 CALM      29.89F
$$

TNZ061-075-076-078-094-096-097-222100-
SOUTH MIDDLE TENNESSEE

CITY           SKY/WX    TMP DP  RH WIND       PRES   REMARKS
FAYETTEVILLE   PTSUNNY   68  57  68 S7        29.84F
TULLAHOMA      MOSUNNY   64  55  72 S6        29.86F
WINCHESTER     CLOUDY    64  57  77 S7        29.86F
MCMINNVILLE    CLOUDY    68  57  68 S6        29.86F
COLUMBIA       CLOUDY    64  64 100 SE3       29.84S
SHELBYVILLE    CLOUDY    66  59  77 S6        29.86S
$$

TNZ017-018-042-046-047-222100-
NORTHEAST TENNESSEE

CITY           SKY/WX    TMP DP  RH WIND       PRES   REMARKS
TRI CITIES     CLOUDY    57  55  93 VRB3      29.92F
ELIZABETHTON   DRIZZLE   59  57  94 CALM      29.92F
$$

TNZ012-013-036-069-073-074-222100-
CENTRAL EAST TENNESSEE

CITY           SKY/WX    TMP DP  RH WIND       PRES   REMARKS
KNOXVILLE      PTSUNNY   62  56  80 N10       29.86F
OAK RIDGE      CLOUDY    60  55  83 VRB5      29.90F
GATLINBURG     CLOUDY    57  55  94 VRB3      29.88F
MORRISTOWN     MOSUNNY   59  57  94 CALM      29.89F
JACKSBORO      CLOUDY    57  55  94 CALM      29.93S
$$

TNZ083-085-099-222100-
SOUTHEAST TENNESSEE

CITY           SKY/WX    TMP DP  RH WIND       PRES   REMARKS
CHATTANOOGA    CLOUDY    66  57  72 CALM      29.87F
$$

SKY/WX REPORTED AS FAIR MEANS FEW OR NO CLOUDS BELOW
12 THOUSAND FEET.




USA.gov is the U.S. government's official web portal to all federal, state and local government web resources and services.